Cambridge, MD

11:18 AM EST on December 16, 2017 (GMT -0500)
Cambridge-Dorchester

Weather History for KCGE - April, 2013

Change the Weather History Date:

Sunday, April 7, 2013

  Actual Average (KESN) Record (KESN)
Temperature  
Mean Temperature 48 °F -  
Max Temperature 62 °F 61 °F 80 °F (1954)
Min Temperature 35 °F 35 °F 25 °F (1950)
Degree Days  
Heating Degree Days 16    
Moisture  
Dew Point 39 °F    
Average Humidity 69    
Maximum Humidity 93    
Minimum Humidity 45    
Precipitation  
Precipitation 0.00 in - - ()
Sea Level Pressure  
Sea Level Pressure 30.18 in    
Wind  
Wind Speed 9 mph (SSE)    
Max Wind Speed 22 mph    
Max Gust Speed 32 mph    
Visibility 10 miles    
Events      
Averages and records for this station are not official NWS values.
T = Trace of Precipitation, MM = Missing Value Source: NWS Daily Summary

Daily Weather History Graph

Daily Weather History Graph

Search for Another Location

Airport or City:

Trip Planner

Search our weather history database for the weather conditions in past years. The results will help you decide how hot, cold, wet, or windy it might be!

Date:

Astronomy

Apr. 07, 2013 Rise Set
Actual Time 6:39 AM EDT 7:33 PM EDT
Civil Twilight 6:12 AM EDT 8:00 PM EDT
Nautical Twilight 5:40 AM EDT 8:32 PM EDT
Astronomical Twilight 5:07 AM EDT 9:05 PM EDT
Moon 4:53 AM EDT (4/7) 5:04 PM EDT (4/7)
Length of Visible Light 13h 47m
Length of Day
12h 53m
Waning Crescent, 8% of the Moon is Illuminated
Apr 7
Waning Crescent
Apr 10
New
Apr 18
First Quarter
Apr 25
Full
May 2
Last Quarter

Hourly Weather History & Observations

Time (EDT) Temp. Windchill Dew Point Humidity Pressure Visibility Wind Dir Wind Speed Gust Speed Precip Events Conditions
12:13 AM 39.2 °F 33.6 °F 32.0 °F 75% 30.33 in 10.0 mi SSE 8.1 mph - N/A   Clear
12:33 AM 39.2 °F 33.6 °F 32.0 °F 75% 30.33 in 10.0 mi SSE 8.1 mph - N/A   Clear
12:53 AM 39.2 °F 33.6 °F 33.8 °F 81% 30.32 in 10.0 mi SSE 8.1 mph - N/A   Clear
1:13 AM 39.2 °F 33.6 °F 33.8 °F 81% 30.32 in 10.0 mi SSE 8.1 mph - N/A   Clear
1:33 AM 39.2 °F 33.0 °F 33.8 °F 81% 30.31 in 10.0 mi SSE 9.2 mph - N/A   Clear
1:53 AM 39.2 °F 34.2 °F 33.8 °F 81% 30.31 in 10.0 mi SSE 6.9 mph - N/A   Clear
2:14 AM 39.2 °F 33.6 °F 33.8 °F 81% 30.29 in 10.0 mi SSE 8.1 mph - N/A   Clear
2:34 AM 39.2 °F 33.6 °F 33.8 °F 81% 30.28 in 10.0 mi SSE 8.1 mph - N/A   Clear
2:54 AM 39.2 °F 34.2 °F 33.8 °F 81% 30.27 in 10.0 mi SSE 6.9 mph - N/A   Clear
3:14 AM 39.2 °F 34.2 °F 33.8 °F 81% 30.27 in 10.0 mi SSE 6.9 mph - N/A   Clear
3:34 AM 39.2 °F 35.0 °F 33.8 °F 81% 30.26 in 10.0 mi SE 5.8 mph - N/A   Clear
3:54 AM 39.2 °F 35.0 °F 33.8 °F 81% 30.26 in 10.0 mi SE 5.8 mph - N/A   Clear
4:14 AM 39.2 °F 35.0 °F 33.8 °F 81% 30.25 in 10.0 mi SE 5.8 mph - N/A   Clear
4:34 AM 37.4 °F 33.8 °F 33.8 °F 87% 30.26 in 10.0 mi SSE 4.6 mph - N/A   Clear
4:54 AM 37.4 °F 34.9 °F 33.8 °F 87% 30.27 in 10.0 mi SSE 3.5 mph - N/A   Clear
5:14 AM 39.2 °F 37.0 °F 33.8 °F 81% 30.27 in 10.0 mi SE 3.5 mph - N/A   Clear
5:34 AM 35.6 °F - 32.0 °F 87% 30.28 in 10.0 mi Calm Calm - N/A   Clear
5:54 AM 35.6 °F - 33.8 °F 93% 30.28 in 10.0 mi Calm Calm - N/A   Clear
6:14 AM 35.6 °F - 33.8 °F 93% 30.28 in 10.0 mi Calm Calm - N/A   Clear
6:34 AM 35.6 °F - 33.8 °F 93% 30.28 in 10.0 mi Calm Calm - N/A   Clear
6:54 AM 35.6 °F - 33.8 °F 93% 30.28 in 10.0 mi Calm Calm - N/A   Clear
7:14 AM 35.6 °F - 33.8 °F 93% 30.29 in 10.0 mi Calm Calm - N/A   Clear
7:34 AM 37.4 °F 34.9 °F 33.8 °F 87% 30.29 in 10.0 mi SSE 3.5 mph - N/A   Clear
7:54 AM 39.2 °F 34.2 °F 35.6 °F 87% 30.28 in 10.0 mi SSE 6.9 mph - N/A   Clear
8:14 AM 42.8 °F 39.3 °F 35.6 °F 76% 30.28 in 10.0 mi SSE 5.8 mph - N/A   Clear
8:34 AM 46.4 °F 43.5 °F 37.4 °F 71% 30.28 in 10.0 mi South 5.8 mph - N/A   Clear
8:54 AM 46.4 °F 42.4 °F 37.4 °F 71% 30.27 in 10.0 mi South 8.1 mph - N/A   Clear
9:14 AM 50.0 °F - 39.2 °F 66% 30.27 in 10.0 mi South 9.2 mph - N/A   Clear
9:34 AM 50.0 °F - 37.4 °F 62% 30.27 in 10.0 mi South 9.2 mph 17.3 mph N/A   Clear
9:54 AM 51.8 °F - 39.2 °F 62% 30.26 in 10.0 mi SSW 9.2 mph 16.1 mph N/A   Scattered Clouds
10:14 AM 51.8 °F - 39.2 °F 62% 30.25 in 10.0 mi South 15.0 mph 19.6 mph N/A   Clear
10:35 AM 51.8 °F - 41.0 °F 67% 30.25 in 7.0 mi South 15.0 mph 20.7 mph N/A   Clear
10:55 AM 53.6 °F - 41.0 °F 62% 30.25 in 10.0 mi South 13.8 mph 23.0 mph N/A   Clear
11:15 AM 53.6 °F - 41.0 °F 62% 30.23 in 10.0 mi South 17.3 mph 24.2 mph N/A   Clear
11:35 AM 53.6 °F - 41.0 °F 62% 30.23 in 10.0 mi South 15.0 mph 21.9 mph N/A   Clear
11:55 AM 53.6 °F - 41.0 °F 62% 30.22 in 10.0 mi South 13.8 mph 26.5 mph N/A   Clear
12:15 PM 53.6 °F - 41.0 °F 62% 30.21 in 10.0 mi South 15.0 mph 19.6 mph N/A   Clear
12:35 PM 55.4 °F - 42.8 °F 63% 30.19 in 10.0 mi SSE 18.4 mph 23.0 mph N/A   Clear
12:55 PM 55.4 °F - 42.8 °F 63% 30.18 in 10.0 mi SSE 16.1 mph 25.3 mph N/A   Clear
1:15 PM 55.4 °F - 42.8 °F 63% 30.17 in 10.0 mi South 19.6 mph 27.6 mph N/A   Clear
1:35 PM 57.2 °F - 41.0 °F 55% 30.16 in 10.0 mi SSE 18.4 mph 26.5 mph N/A   Clear
1:55 PM 57.2 °F - 41.0 °F 55% 30.15 in 10.0 mi SSE 17.3 mph 25.3 mph N/A   Clear
2:15 PM 59.0 °F - 41.0 °F 51% 30.14 in 10.0 mi SSE 16.1 mph 24.2 mph N/A   Clear
2:35 PM 59.0 °F - 39.2 °F 48% 30.12 in 10.0 mi SSE 13.8 mph 23.0 mph N/A   Clear
2:55 PM 59.0 °F - 37.4 °F 45% 30.11 in 10.0 mi SSE 11.5 mph 24.2 mph N/A   Clear
3:15 PM 59.0 °F - 37.4 °F 45% 30.10 in 10.0 mi South 15.0 mph 25.3 mph N/A   Clear
3:35 PM 59.0 °F - 39.2 °F 48% 30.10 in 10.0 mi South 17.3 mph 24.2 mph N/A   Clear
3:55 PM 59.0 °F - 39.2 °F 48% 30.10 in 10.0 mi South 11.5 mph 20.7 mph N/A   Clear
4:15 PM 59.0 °F - 41.0 °F 51% 30.09 in 10.0 mi South 12.7 mph 21.9 mph N/A   Clear
4:35 PM 60.8 °F - 41.0 °F 48% 30.07 in 10.0 mi South 13.8 mph 21.9 mph N/A   Clear
4:55 PM 62.6 °F - 41.0 °F 45% 30.05 in 10.0 mi South 17.3 mph 28.8 mph N/A   Clear
5:15 PM 60.8 °F - 41.0 °F 48% 30.04 in 10.0 mi South 16.1 mph 25.3 mph N/A   Clear
5:35 PM 60.8 °F - 41.0 °F 48% 30.03 in 10.0 mi South 21.9 mph 32.2 mph N/A   Clear
5:55 PM 60.8 °F - 42.8 °F 52% 30.04 in 10.0 mi South 16.1 mph 23.0 mph N/A   Clear
6:15 PM 60.8 °F - 42.8 °F 52% 30.05 in 10.0 mi South 16.1 mph 23.0 mph N/A   Clear
6:35 PM 60.8 °F - 42.8 °F 52% 30.05 in 10.0 mi South 10.4 mph 19.6 mph N/A   Clear
6:56 PM 59.0 °F - 44.6 °F 59% 30.06 in 10.0 mi South 15.0 mph 20.7 mph N/A   Clear
7:16 PM 57.2 °F - 44.6 °F 63% 30.06 in 10.0 mi South 12.7 mph 25.3 mph N/A   Clear
7:36 PM 55.4 °F - 44.6 °F 67% 30.05 in 10.0 mi South 15.0 mph 19.6 mph N/A   Clear
7:56 PM 55.4 °F - 44.6 °F 67% 30.05 in 10.0 mi South 10.4 mph 20.7 mph N/A   Clear
8:16 PM 55.4 °F - 44.6 °F 67% 30.05 in 10.0 mi South 11.5 mph 16.1 mph N/A   Clear
8:36 PM 55.4 °F - 44.6 °F 67% 30.05 in 10.0 mi South 15.0 mph - N/A   Clear
8:56 PM 53.6 °F - 44.6 °F 72% 30.05 in 10.0 mi South 10.4 mph 17.3 mph N/A   Clear
9:16 PM 53.6 °F - 44.6 °F 72% 30.06 in 10.0 mi SSE 10.4 mph - N/A   Clear
9:36 PM 53.6 °F - 44.6 °F 72% 30.05 in 10.0 mi SSE 8.1 mph - N/A   Clear
9:56 PM 53.6 °F - 44.6 °F 72% 30.06 in 10.0 mi SSE 8.1 mph - N/A   Clear
10:16 PM 53.6 °F - 46.4 °F 77% 30.06 in 10.0 mi SSE 8.1 mph - N/A   Clear
10:36 PM 53.6 °F - 44.6 °F 72% 30.05 in 10.0 mi South 5.8 mph - N/A   Clear
10:56 PM 53.6 °F - 44.6 °F 72% 30.05 in 10.0 mi South 5.8 mph - N/A   Clear
11:16 PM 53.6 °F - 44.6 °F 72% 30.05 in 10.0 mi SSE 5.8 mph - N/A   Clear
11:36 PM 53.6 °F - 46.4 °F 77% 30.05 in 10.0 mi South 5.8 mph - N/A   Clear
11:56 PM 53.6 °F - 46.4 °F 77% 30.05 in 10.0 mi South 4.6 mph - N/A   Clear